Погода в Рингкёбинге

Дания     56°05′23″N   8°14′39″E
темп.,
°C
ветер,
м/с
пор.,
м/с
влажн.,
%
обл.,
%
осадки,
мм/ч
давл.,
гПа
погр.,
м
13 апреля, вт
вт1323:00+5з101283100 1.0 1019760
02:00+5з10128379 1.6 1020668
05:00+4зсз11138014 0.3 1020912
08:00+4зсз1113785 0.3 10221228
11:00+5зсз11137412 0.2 10231207
14:00+5сз1214715 0.5 10251293
17:00+5зсз1114695 0.0 10261387
20:00+5зсз1013735 0.0 10261152
14 апреля, ср
ср1423:00+4сз1013745 0.0 10271087
02:00+4сз911765 0.0 1027939
05:00+4сз810705 0.0 1027883
08:00+4сз68675 0.1 1028956
11:00+5зсз446399 0.0 10291014
14:00+5зюз336438 0.0 1029613
17:00+5з326635 0.1 1029376
20:00+5зюз12707 0.2 1030175
15 апреля, чт
чт1523:00+4с11762 0.0 103214
02:00+3св33625 0.0 103295
05:00+3св34695 0.0 1033103
08:00+3св356699 0.0 1034154
11:00+6ссв4556100 0.0 1034397
14:00+8с4655100 0.0 1033777
17:00+8с6758100 0.1 1032679
20:00+7ссв586493 0.1 1033195
16 апреля, пт
пт1623:00+5св487696 0.0 1033163
02:00+4ссв5107399 0.0 1033239
05:00+3св587828 0.0 1033181
08:00+4св587538 0.0 1033210
11:00+8св68595 0.0 1033536
14:00+10всв795312 0.0 1032737
17:00+11всв675250 0.0 1031734
20:00+8всв4564100 0.0 103186
17 апреля, сб
сб1723:00+6ссв59789 0.0 1032165
02:00+5св5108119 0.0 1031176
05:00+4св597734 0.0 1031193
08:00+5всв610765 0.0 1031384
11:00+9всв686360 0.0 1031401
14:00+9всв6863100 0.0 1030349
17:00+9всв7962100 0.0 1030331
20:00+8всв3569100 0.0 1029143